Location: Dannhausen
(51.8650°N, 10.1026°E)
Time: 02:08:20
(UTC+00:00)

Envisat - Pass Details

Date: 09 August 2021
Orbit: 764 x 766 km, 98.2° (Epoch: 16 September)

Event Time Altitude Azimuth Distance (km) Brightness Sun altitude
Rises 03:04:38 0° 29° (NNE) 3,245 7.7 -7.3°
Reaches altitude 10° 03:08:24 10° 58° (ENE) 2,312 7.3 -6.9°
Maximum altitude 03:10:36 13° 84° (E) 2,123 6.3 -6.6°
Drops below altitude 10° 03:12:48 10° 110° (ESE) 2,303 6.0 -6.3°
Sets 03:16:32 0° 139° (SE) 3,222 6.3 -5.9°
